Time,TemperatureF,DewpointF,PressureIn,WindDirection,WindDirectionDegrees,WindSpeedMPH,WindSpeedGustMPH,Humidity,HourlyPrecipIn,Conditions,Clouds,dailyrainin,SoftwareType,DateUTC
2013-01-19 00:03:00,39.4,4.7,30.23,WNW,296,5.4,6.3,23,0.00,,CLR,0.00,VWS V14.01,2013-01-19 08:03:00,
2013-01-19 00:08:00,39.2,4.5,30.23,West,267,4.0,6.3,23,0.00,,CLR,0.00,VWS V14.01,2013-01-19 08:08:00,
2013-01-19 00:13:00,39.6,4.8,30.23,West,263,5.8,8.7,23,0.00,,CLR,0.00,VWS V14.01,2013-01-19 08:13:00,
2013-01-19 00:18:00,39.9,5.1,30.23,West,272,4.9,6.3,23,0.00,,CLR,0.00,VWS V14.01,2013-01-19 08:18:00,
2013-01-19 00:23:00,40.1,5.3,30.23,WNW,297,3.6,5.8,23,0.00,,CLR,0.00,VWS V14.01,2013-01-19 08:23:00,
2013-01-19 00:28:00,40.5,5.6,30.23,WNW,294,8.7,8.7,23,0.00,,CLR,0.00,VWS V14.01,2013-01-19 08:28:00,
2013-01-19 00:33:00,41.4,6.4,30.23,NW,305,6.3,8.1,23,0.00,,CLR,0.00,VWS V14.01,2013-01-19 08:33:00,
2013-01-19 00:38:00,42.1,7.0,30.23,WNW,285,7.6,7.6,23,0.00,,CLR,0.00,VWS V14.01,2013-01-19 08:38:00,
2013-01-19 00:43:00,42.4,7.3,30.23,NW,317,5.4,5.8,23,0.00,,CLR,0.00,VWS V14.01,2013-01-19 08:43:00,
2013-01-19 00:48:00,41.9,6.8,30.23,WNW,296,6.3,6.3,23,0.00,,CLR,0.00,VWS V14.01,2013-01-19 08:48:00,
2013-01-19 00:53:00,41.0,6.1,30.23,NW,318,5.8,8.1,23,0.00,,CLR,0.00,VWS V14.01,2013-01-19 08:53:00,
2013-01-19 00:58:00,40.6,5.8,30.23,NW,307,5.8,8.3,23,0.00,,CLR,0.00,VWS V14.01,2013-01-19 08:58:00,
2013-01-19 01:03:00,41.0,6.1,30.23,NW,311,7.6,7.6,23,0.00,,CLR,0.00,VWS V14.01,2013-01-19 09:03:00,
2013-01-19 01:08:00,41.4,6.4,30.26,WNW,292,3.6,4.9,23,0.00,,CLR,0.00,VWS V14.01,2013-01-19 09:08:00,
2013-01-19 01:13:00,41.2,6.2,30.26,West,272,4.9,4.9,23,0.00,,CLR,0.00,VWS V14.01,2013-01-19 09:13:00,
2013-01-19 01:18:00,41.0,6.1,30.26,WNW,285,4.9,4.9,23,0.00,,CLR,0.00,VWS V14.01,2013-01-19 09:18:00,
2013-01-19 01:23:00,41.0,6.1,30.26,WNW,286,2.7,5.8,23,0.00,,CLR,0.00,VWS V14.01,2013-01-19 09:23:00,
2013-01-19 01:28:00,40.6,5.8,30.26,WNW,294,8.1,8.1,23,0.00,,CLR,0.00,VWS V14.01,2013-01-19 09:28:00,
2013-01-19 01:33:00,40.5,5.6,30.26,WNW,301,3.6,4.0,23,0.00,,CLR,0.00,VWS V14.01,2013-01-19 09:33:00,
2013-01-19 01:38:00,40.1,5.3,30.26,West,271,4.0,6.3,23,0.00,,CLR,0.00,VWS V14.01,2013-01-19 09:38:00,
2013-01-19 01:43:00,39.9,5.1,30.26,NW,314,0.0,0.0,23,0.00,,CLR,0.00,VWS V14.01,2013-01-19 09:43:00,
2013-01-19 01:48:00,39.6,4.8,30.26,NW,314,0.0,0.0,23,0.00,,CLR,0.00,VWS V14.01,2013-01-19 09:48:00,
2013-01-19 01:53:00,39.2,4.5,30.26,West,277,5.4,5.4,23,0.00,,CLR,0.00,VWS V14.01,2013-01-19 09:53:00,
2013-01-19 01:58:00,39.0,5.3,30.26,WNW,291,4.0,4.9,24,0.00,,CLR,0.00,VWS V14.01,2013-01-19 09:58:00,
2013-01-19 02:03:00,38.8,5.2,30.26,WNW,283,5.8,5.8,24,0.00,,CLR,0.00,VWS V14.01,2013-01-19 10:03:00,
2013-01-19 02:08:00,38.8,5.2,30.26,NW,315,5.4,6.3,24,0.00,,CLR,0.00,VWS V14.01,2013-01-19 10:08:00,
2013-01-19 02:13:00,39.2,4.5,30.26,NW,318,8.7,10.5,23,0.00,,CLR,0.00,VWS V14.01,2013-01-19 10:13:00,
2013-01-19 02:18:00,39.9,5.1,30.26,WNW,288,6.3,7.6,23,0.00,,CLR,0.00,VWS V14.01,2013-01-19 10:18:00,
2013-01-19 02:23:00,39.7,5.0,30.26,WNW,289,7.6,7.6,23,0.00,,CLR,0.00,VWS V14.01,2013-01-19 10:23:00,
2013-01-19 02:28:00,39.2,4.5,30.26,NW,308,4.0,5.8,23,0.00,,CLR,0.00,VWS V14.01,2013-01-19 10:28:00,
2013-01-19 02:33:00,38.5,4.8,30.26,NW,321,5.4,5.4,24,0.00,,CLR,0.00,VWS V14.01,2013-01-19 10:33:00,
2013-01-19 02:38:00,37.8,4.2,30.26,West,276,8.3,8.3,24,0.00,,CLR,0.00,VWS V14.01,2013-01-19 10:38:00,
2013-01-19 02:43:00,37.8,4.2,30.26,NW,308,4.0,4.0,24,0.00,,CLR,0.00,VWS V14.01,2013-01-19 10:43:00,
2013-01-19 02:48:00,37.6,4.1,30.26,West,280,3.1,5.8,24,0.00,,CLR,0.00,VWS V14.01,2013-01-19 10:48:00,
2013-01-19 02:53:00,37.4,3.9,30.23,NW,308,6.3,6.3,24,0.00,,CLR,0.00,VWS V14.01,2013-01-19 10:53:00,
2013-01-19 02:58:00,37.0,3.6,30.23,NW,312,5.4,5.4,24,0.00,,CLR,0.00,VWS V14.01,2013-01-19 10:58:00,
2013-01-19 03:03:00,37.4,3.9,30.23,WNW,300,6.7,6.7,24,0.00,,CLR,0.00,VWS V14.01,2013-01-19 11:03:00,
2013-01-19 03:08:00,38.1,4.5,30.23,WNW,294,5.8,5.8,24,0.00,,CLR,0.00,VWS V14.01,2013-01-19 11:08:00,
2013-01-19 03:13:00,38.5,4.8,30.23,NW,317,6.7,7.6,24,0.00,,CLR,0.00,VWS V14.01,2013-01-19 11:13:00,
2013-01-19 04:47:00,36.3,3.0,30.26,West,273,4.0,4.0,24,0.00,,CLR,0.00,VWS V14.01,2013-01-19 12:47:00,
2013-01-19 04:48:00,36.3,3.0,30.26,West,278,3.6,3.6,24,0.00,,CLR,0.00,VWS V14.01,2013-01-19 12:48:00,
2013-01-19 04:53:00,36.7,3.3,30.26,West,272,3.1,5.8,24,0.00,,CLR,0.00,VWS V14.01,2013-01-19 12:53:00,
2013-01-19 04:58:00,36.5,3.2,30.26,WNW,294,4.9,4.9,24,0.00,,CLR,0.00,VWS V14.01,2013-01-19 12:58:00,
2013-01-19 05:03:00,36.1,2.8,30.26,NW,310,4.9,5.4,24,0.00,,CLR,0.00,VWS V14.01,2013-01-19 13:03:00,
2013-01-19 05:08:00,35.6,2.4,30.26,NW,323,4.0,4.0,24,0.00,,CLR,0.00,VWS V14.01,2013-01-19 13:08:00,
2013-01-19 05:13:00,34.9,2.6,30.26,NW,304,4.0,5.4,25,0.00,,CLR,0.00,VWS V14.01,2013-01-19 13:13:00,
2013-01-19 05:18:00,34.3,2.2,30.26,NW,316,3.6,5.4,25,0.00,,CLR,0.00,VWS V14.01,2013-01-19 13:18:00,
2013-01-19 05:23:00,34.0,1.9,30.26,NW,319,3.6,4.0,25,0.00,,CLR,0.00,VWS V14.01,2013-01-19 13:23:00,
2013-01-19 05:28:00,33.8,1.7,30.26,NW,306,3.6,4.0,25,0.00,,CLR,0.00,VWS V14.01,2013-01-19 13:28:00,
2013-01-19 05:33:00,34.0,1.9,30.26,WNW,289,4.0,4.0,25,0.00,,CLR,0.00,VWS V14.01,2013-01-19 13:33:00,
2013-01-19 05:38:00,34.9,2.6,30.26,WNW,287,4.5,5.4,25,0.00,,CLR,0.00,VWS V14.01,2013-01-19 13:38:00,
2013-01-19 05:43:00,35.4,3.1,30.26,NW,305,4.0,5.4,25,0.00,,CLR,0.00,VWS V14.01,2013-01-19 13:43:00,
2013-01-19 05:48:00,35.6,2.4,30.26,WNW,300,4.0,4.0,24,0.00,,CLR,0.00,VWS V14.01,2013-01-19 13:48:00,
2013-01-19 05:53:00,35.4,3.1,30.26,NW,308,4.0,4.0,25,0.00,,CLR,0.00,VWS V14.01,2013-01-19 13:53:00,
2013-01-19 05:58:00,34.9,2.6,30.26,West,273,6.3,6.3,25,0.00,,CLR,0.00,VWS V14.01,2013-01-19 13:58:00,
2013-01-19 06:03:00,34.9,2.6,30.26,West,277,5.8,5.8,25,0.00,,CLR,0.00,VWS V14.01,2013-01-19 14:03:00,
2013-01-19 06:08:00,35.2,3.0,30.29,WNW,286,0.0,0.0,25,0.00,,CLR,0.00,VWS V14.01,2013-01-19 14:08:00,
2013-01-19 06:13:00,35.4,3.1,30.29,WNW,287,3.6,4.0,25,0.00,,CLR,0.00,VWS V14.01,2013-01-19 14:13:00,
2013-01-19 06:18:00,35.8,2.5,30.29,WNW,287,0.0,0.0,24,0.00,,CLR,0.00,VWS V14.01,2013-01-19 14:18:00,
2013-01-19 06:23:00,36.3,3.0,30.29,West,279,4.0,4.0,24,0.00,,CLR,0.00,VWS V14.01,2013-01-19 14:23:00,
2013-01-19 06:28:00,36.7,3.3,30.29,West,272,3.1,3.1,24,0.00,,CLR,0.00,VWS V14.01,2013-01-19 14:28:00,
2013-01-19 06:33:00,36.7,3.3,30.29,West,275,2.7,2.7,24,0.00,,CLR,0.00,VWS V14.01,2013-01-19 14:33:00,
2013-01-19 06:38:00,36.3,3.0,30.29,West,275,0.0,0.0,24,0.00,,CLR,0.00,VWS V14.01,2013-01-19 14:38:00,
2013-01-19 06:43:00,35.6,2.4,30.29,WNW,288,3.6,4.9,24,0.00,,CLR,0.00,VWS V14.01,2013-01-19 14:43:00,
2013-01-19 06:48:00,34.9,2.6,30.29,NW,304,4.9,5.4,25,0.00,,CLR,0.00,VWS V14.01,2013-01-19 14:48:00,
2013-01-19 06:53:00,34.5,2.3,30.29,NW,305,3.6,4.0,25,0.00,,CLR,0.00,VWS V14.01,2013-01-19 14:53:00,
2013-01-19 06:58:00,34.7,2.5,30.29,West,264,4.0,4.0,25,0.00,,CLR,0.00,VWS V14.01,2013-01-19 14:58:00,
2013-01-19 07:03:00,35.2,3.0,30.29,West,262,4.9,6.3,25,0.00,,CLR,0.00,VWS V14.01,2013-01-19 15:03:00,
2013-01-19 07:08:00,35.6,2.4,30.29,West,269,5.8,6.3,24,0.00,,CLR,0.00,VWS V14.01,2013-01-19 15:08:00,
2013-01-19 07:13:00,35.8,2.5,30.29,West,270,5.8,6.7,24,0.00,,CLR,0.00,VWS V14.01,2013-01-19 15:13:00,
2013-01-19 07:18:00,36.1,2.8,30.29,West,271,5.8,5.8,24,0.00,,CLR,0.00,VWS V14.01,2013-01-19 15:18:00,
2013-01-19 07:23:00,36.7,3.3,30.29,WNW,288,4.0,4.9,24,0.00,,CLR,0.00,VWS V14.01,2013-01-19 15:23:00,
2013-01-19 07:28:00,36.9,3.5,30.29,WNW,293,0.0,0.0,24,0.00,,CLR,0.00,VWS V14.01,2013-01-19 15:28:00,
2013-01-19 07:33:00,37.4,3.9,30.29,WNW,293,0.0,0.0,24,0.00,,CLR,0.00,VWS V14.01,2013-01-19 15:33:00,
2013-01-19 07:38:00,37.8,4.2,30.29,WNW,285,0.0,0.0,24,0.00,,CLR,0.00,VWS V14.01,2013-01-19 15:38:00,
2013-01-19 07:43:00,37.8,4.2,30.29,West,276,3.1,4.0,24,0.00,,CLR,0.00,VWS V14.01,2013-01-19 15:43:00,
2013-01-19 07:48:00,38.3,4.7,30.29,WNW,295,3.6,4.0,24,0.00,,CLR,0.00,VWS V14.01,2013-01-19 15:48:00,
2013-01-19 07:53:00,38.8,5.2,30.29,WNW,288,3.1,3.1,24,0.00,,CLR,0.00,VWS V14.01,2013-01-19 15:53:00,
2013-01-19 07:58:00,39.7,5.0,30.29,WNW,289,5.4,5.4,23,0.00,,CLR,0.00,VWS V14.01,2013-01-19 15:58:00,
2013-01-19 08:03:00,40.6,5.8,30.29,West,277,4.0,6.3,23,0.00,,CLR,0.00,VWS V14.01,2013-01-19 16:03:00,
2013-01-19 08:08:00,41.5,6.5,30.32,WNW,282,3.1,3.6,23,0.00,,CLR,0.00,VWS V14.01,2013-01-19 16:08:00,
2013-01-19 08:13:00,42.6,7.4,30.32,West,277,3.1,4.9,23,0.00,,CLR,0.00,VWS V14.01,2013-01-19 16:13:00,
2013-01-19 08:18:00,43.5,8.2,30.32,West,276,0.0,0.0,23,0.00,,CLR,0.00,VWS V14.01,2013-01-19 16:18:00,
2013-01-19 08:23:00,44.1,8.6,30.32,West,277,6.3,6.3,23,0.00,,CLR,0.00,VWS V14.01,2013-01-19 16:23:00,
2013-01-19 08:28:00,44.2,8.8,30.32,WSW,253,4.0,5.4,23,0.00,,CLR,0.00,VWS V14.01,2013-01-19 16:28:00,
2013-01-19 08:33:00,44.2,8.8,30.32,WSW,245,5.8,5.8,23,0.00,,CLR,0.00,VWS V14.01,2013-01-19 16:33:00,
2013-01-19 08:38:00,44.2,8.8,30.32,WSW,258,3.1,4.9,23,0.00,,CLR,0.00,VWS V14.01,2013-01-19 16:38:00,
2013-01-19 08:43:00,44.6,8.1,30.32,WSW,253,4.0,4.9,22,0.00,,CLR,0.00,VWS V14.01,2013-01-19 16:43:00,
2013-01-19 08:48:00,44.8,8.3,30.32,WSW,252,2.2,2.7,22,0.00,,CLR,0.00,VWS V14.01,2013-01-19 16:48:00,
2013-01-19 08:53:00,46.0,9.3,30.32,West,280,0.0,0.0,22,0.00,,CLR,0.00,VWS V14.01,2013-01-19 16:53:00,
2013-01-19 08:58:00,47.5,10.6,30.32,West,280,0.0,0.0,22,0.00,,CLR,0.00,VWS V14.01,2013-01-19 16:58:00,
2013-01-19 09:03:00,49.1,10.9,30.32,West,279,0.0,0.0,21,0.00,,CLR,0.00,VWS V14.01,2013-01-19 17:03:00,
2013-01-19 09:08:00,50.2,11.8,30.32,West,279,0.0,0.0,21,0.00,,CLR,0.00,VWS V14.01,2013-01-19 17:08:00,
2013-01-19 09:13:00,51.3,12.7,30.32,West,280,0.0,0.0,21,0.00,,CLR,0.00,VWS V14.01,2013-01-19 17:13:00,
2013-01-19 09:18:00,52.3,13.6,30.32,West,280,0.0,0.0,21,0.00,,CLR,0.00,VWS V14.01,2013-01-19 17:18:00,
2013-01-19 09:23:00,53.4,14.5,30.32,WNW,282,0.0,0.0,21,0.00,,CLR,0.00,VWS V14.01,2013-01-19 17:23:00,
2013-01-19 09:28:00,54.3,14.1,30.32,NW,308,0.0,0.0,20,0.00,,CLR,0.00,VWS V14.01,2013-01-19 17:28:00,
2013-01-19 09:33:00,54.7,14.4,30.32,NW,310,0.0,0.0,20,0.00,,CLR,0.00,VWS V14.01,2013-01-19 17:33:00,
2013-01-19 09:38:00,54.5,14.3,30.32,NW,310,0.0,0.0,20,0.00,,CLR,0.00,VWS V14.01,2013-01-19 17:38:00,
2013-01-19 09:43:00,54.5,14.3,30.32,NW,310,0.0,0.0,20,0.00,,CLR,0.00,VWS V14.01,2013-01-19 17:43:00,
2013-01-19 09:48:00,55.6,15.2,30.32,NW,309,0.0,0.0,20,0.00,,CLR,0.00,VWS V14.01,2013-01-19 17:48:00,
2013-01-19 09:53:00,55.9,15.5,30.32,NW,310,0.0,0.0,20,0.00,,CLR,0.00,VWS V14.01,2013-01-19 17:53:00,
2013-01-19 09:58:00,55.0,14.7,30.32,WSW,256,4.0,4.0,20,0.00,,CLR,0.00,VWS V14.01,2013-01-19 17:58:00,
2013-01-19 10:03:00,54.3,14.1,30.32,WSW,256,0.0,4.0,20,0.00,,CLR,0.00,VWS V14.01,2013-01-19 18:03:00,
2013-01-19 10:08:00,54.0,13.8,30.32,WSW,256,0.0,0.0,20,0.00,,CLR,0.00,VWS V14.01,2013-01-19 18:08:00,
2013-01-19 10:13:00,53.8,13.7,30.32,SW,224,0.0,0.0,20,0.00,,CLR,0.00,VWS V14.01,2013-01-19 18:13:00,
2013-01-19 10:18:00,54.1,14.0,30.32,SSW,208,3.6,5.8,20,0.00,,CLR,0.00,VWS V14.01,2013-01-19 18:18:00,
2013-01-19 10:23:00,53.8,13.7,30.32,WSW,252,0.0,6.3,20,0.00,,CLR,0.00,VWS V14.01,2013-01-19 18:23:00,
2013-01-19 10:28:00,54.0,13.8,30.32,WSW,257,3.1,5.8,20,0.00,,CLR,0.00,VWS V14.01,2013-01-19 18:28:00,
2013-01-19 10:33:00,54.3,14.1,30.32,SW,223,4.9,6.3,20,0.00,,CLR,0.00,VWS V14.01,2013-01-19 18:33:00,
2013-01-19 10:39:00,54.3,14.1,30.32,SW,234,3.6,5.4,20,0.00,,CLR,0.00,VWS V14.01,2013-01-19 18:39:00,
2013-01-19 10:44:00,54.9,14.6,30.32,SW,235,4.0,4.0,20,0.00,,CLR,0.00,VWS V14.01,2013-01-19 18:44:00,
2013-01-19 10:49:00,55.2,14.9,30.32,South,183,0.0,0.0,20,0.00,,CLR,0.00,VWS V14.01,2013-01-19 18:49:00,
2013-01-19 10:54:00,56.1,15.6,30.32,SSW,196,0.0,0.0,20,0.00,,CLR,0.00,VWS V14.01,2013-01-19 18:54:00,
2013-01-19 10:59:00,57.6,15.6,30.32,SW,216,0.0,0.0,19,0.00,,CLR,0.00,VWS V14.01,2013-01-19 18:59:00,
2013-01-19 11:04:00,57.7,15.8,30.32,SSW,206,0.0,0.0,19,0.00,,CLR,0.00,VWS V14.01,2013-01-19 19:04:00,
2013-01-19 11:09:00,57.9,15.9,30.29,SSW,206,0.0,0.0,19,0.00,,CLR,0.00,VWS V14.01,2013-01-19 19:09:00,
2013-01-19 11:14:00,59.2,17.0,30.29,ESE,102,5.4,6.3,19,0.00,,CLR,0.00,VWS V14.01,2013-01-19 19:14:00,
2013-01-19 11:19:00,58.3,16.2,30.29,East,97,0.0,5.8,19,0.00,,CLR,0.00,VWS V14.01,2013-01-19 19:19:00,
2013-01-19 11:24:00,58.3,16.2,30.29,SSE,152,4.0,4.0,19,0.00,,CLR,0.00,VWS V14.01,2013-01-19 19:24:00,
2013-01-19 11:29:00,58.1,16.1,30.29,SSE,156,0.0,3.1,19,0.00,,CLR,0.00,VWS V14.01,2013-01-19 19:29:00,
2013-01-19 11:34:00,58.5,16.4,30.29,NE,55,0.0,0.0,19,0.00,,CLR,0.00,VWS V14.01,2013-01-19 19:34:00,
2013-01-19 11:39:00,59.2,17.0,30.26,South,185,3.1,4.0,19,0.00,,CLR,0.00,VWS V14.01,2013-01-19 19:39:00,
2013-01-19 11:45:00,59.2,17.0,30.26,SSE,166,3.1,3.1,19,0.00,,CLR,0.00,VWS V14.01,2013-01-19 19:45:00,
2013-01-19 11:50:00,59.0,16.8,30.26,SSE,165,0.0,0.0,19,0.00,,CLR,0.00,VWS V14.01,2013-01-19 19:50:00,
2013-01-19 11:55:00,59.0,16.8,30.26,SSE,165,0.0,0.0,19,0.00,,CLR,0.00,VWS V14.01,2013-01-19 19:55:00,
2013-01-19 12:00:00,59.9,17.6,30.26,SSE,165,0.0,0.0,19,0.00,,CLR,0.00,VWS V14.01,2013-01-19 20:00:00,
2013-01-19 12:05:00,60.1,17.7,30.26,SSE,165,0.0,0.0,19,0.00,,CLR,0.00,VWS V14.01,2013-01-19 20:05:00,
2013-01-19 12:10:00,60.4,18.0,30.26,SSE,166,0.0,0.0,19,0.00,,CLR,0.00,VWS V14.01,2013-01-19 20:10:00,
2013-01-19 12:15:00,61.2,18.6,30.26,SSE,167,0.0,0.0,19,0.00,,CLR,0.00,VWS V14.01,2013-01-19 20:15:00,
2013-01-19 12:20:00,61.9,21.5,30.26,SSE,166,0.0,0.0,21,0.00,,CLR,0.00,VWS V14.01,2013-01-19 20:20:00,
2013-01-19 12:25:00,62.8,22.3,30.26,SSE,166,0.0,0.0,21,0.00,,CLR,0.00,VWS V14.01,2013-01-19 20:25:00,
2013-01-19 12:30:00,62.1,19.3,30.26,SSE,165,0.0,0.0,19,0.00,,CLR,0.00,VWS V14.01,2013-01-19 20:30:00,
2013-01-19 12:35:00,61.7,19.0,30.26,SSE,165,0.0,0.0,19,0.00,,CLR,0.00,VWS V14.01,2013-01-19 20:35:00,
2013-01-19 12:40:00,61.7,19.0,30.26,SSE,165,0.0,0.0,19,0.00,,CLR,0.00,VWS V14.01,2013-01-19 20:40:00,
2013-01-19 12:46:00,61.9,19.2,30.26,SSE,165,0.0,0.0,19,0.00,,CLR,0.00,VWS V14.01,2013-01-19 20:46:00,
2013-01-19 12:51:00,61.7,19.0,30.23,SSE,164,0.0,0.0,19,0.00,,CLR,0.00,VWS V14.01,2013-01-19 20:51:00,
2013-01-19 12:56:00,61.7,19.0,30.23,SE,134,0.0,0.0,19,0.00,,CLR,0.00,VWS V14.01,2013-01-19 20:56:00,
2013-01-19 13:01:00,62.1,19.3,30.23,SSE,165,0.0,0.0,19,0.00,,CLR,0.00,VWS V14.01,2013-01-19 21:01:00,
2013-01-19 13:06:00,61.7,19.0,30.23,South,171,0.0,0.0,19,0.00,,CLR,0.00,VWS V14.01,2013-01-19 21:06:00,
2013-01-19 13:11:00,61.7,19.0,30.23,South,171,0.0,0.0,19,0.00,,CLR,0.00,VWS V14.01,2013-01-19 21:11:00,
2013-01-19 13:16:00,62.4,22.0,30.23,South,170,0.0,0.0,21,0.00,,CLR,0.00,VWS V14.01,2013-01-19 21:16:00,
2013-01-19 13:21:00,62.6,22.1,30.23,ESE,114,5.4,5.8,21,0.00,,CLR,0.00,VWS V14.01,2013-01-19 21:21:00,
2013-01-19 13:26:00,61.9,19.2,30.23,ESE,108,0.0,0.0,19,0.00,,CLR,0.00,VWS V14.01,2013-01-19 21:26:00,
2013-01-19 13:32:00,61.9,19.2,30.23,East,99,0.0,4.0,19,0.00,,CLR,0.00,VWS V14.01,2013-01-19 21:32:00,
2013-01-19 13:37:00,61.7,19.0,30.23,SE,145,0.0,0.0,19,0.00,,CLR,0.00,VWS V14.01,2013-01-19 21:37:00,
2013-01-19 13:42:00,62.1,19.3,30.23,ESE,112,3.6,3.6,19,0.00,,CLR,0.00,VWS V14.01,2013-01-19 21:42:00,
2013-01-19 13:47:00,62.1,19.3,30.23,SSE,154,0.0,0.0,19,0.00,,CLR,0.00,VWS V14.01,2013-01-19 21:47:00,
2013-01-19 13:52:00,61.7,19.0,30.23,SSE,162,0.0,0.0,19,0.00,,CLR,0.00,VWS V14.01,2013-01-19 21:52:00,
2013-01-19 13:57:00,62.1,19.3,30.23,SSE,150,0.0,3.1,19,0.00,,CLR,0.00,VWS V14.01,2013-01-19 21:57:00,
2013-01-19 14:02:00,62.1,19.3,30.23,SSW,197,4.9,4.9,19,0.00,,CLR,0.00,VWS V14.01,2013-01-19 22:02:00,
2013-01-19 14:07:00,62.1,19.3,30.23,South,173,4.9,4.9,19,0.00,,CLR,0.00,VWS V14.01,2013-01-19 22:07:00,
2013-01-19 14:12:00,61.9,19.2,30.23,SSE,161,5.4,5.4,19,0.00,,CLR,0.00,VWS V14.01,2013-01-19 22:12:00,
2013-01-19 14:17:00,62.1,19.3,30.23,South,187,4.9,4.9,19,0.00,,CLR,0.00,VWS V14.01,2013-01-19 22:17:00,
2013-01-19 14:22:00,62.1,19.3,30.20,South,187,0.0,0.0,19,0.00,,CLR,0.00,VWS V14.01,2013-01-19 22:22:00,
2013-01-19 14:27:00,62.4,19.6,30.20,South,190,0.0,0.0,19,0.00,,CLR,0.00,VWS V14.01,2013-01-19 22:27:00,
2013-01-19 14:32:00,62.4,19.6,30.20,South,189,0.0,0.0,19,0.00,,CLR,0.00,VWS V14.01,2013-01-19 22:32:00,
2013-01-19 14:37:00,63.1,22.6,30.20,South,190,0.0,0.0,21,0.00,,CLR,0.00,VWS V14.01,2013-01-19 22:37:00,
2013-01-19 14:42:00,63.5,22.9,30.20,ESE,105,0.0,0.0,21,0.00,,CLR,0.00,VWS V14.01,2013-01-19 22:42:00,
2013-01-19 14:47:00,63.5,22.9,30.20,East,79,2.7,4.0,21,0.00,,CLR,0.00,VWS V14.01,2013-01-19 22:47:00,
2013-01-19 14:52:00,63.1,19.0,30.20,SSW,204,0.0,0.0,18,0.00,,CLR,0.00,VWS V14.01,2013-01-19 22:52:00,
2013-01-19 14:57:00,63.1,19.0,30.20,SSW,206,0.0,0.0,18,0.00,,CLR,0.00,VWS V14.01,2013-01-19 22:57:00,
2013-01-19 15:03:00,63.9,23.2,30.20,SSW,205,0.0,0.0,21,0.00,,CLR,0.00,VWS V14.01,2013-01-19 23:03:00,
2013-01-19 15:08:00,64.0,23.3,30.20,ESE,113,0.0,0.0,21,0.00,,CLR,0.00,VWS V14.01,2013-01-19 23:08:00,
2013-01-19 15:12:00,63.5,19.3,30.20,SSE,151,0.0,0.0,18,0.00,,CLR,0.00,VWS V14.01,2013-01-19 23:12:00,
2013-01-19 15:17:00,63.3,19.1,30.20,SSE,158,0.0,0.0,18,0.00,,CLR,0.00,VWS V14.01,2013-01-19 23:17:00,
2013-01-19 15:22:00,63.0,22.5,30.20,ESE,109,5.8,5.8,21,0.00,,CLR,0.00,VWS V14.01,2013-01-19 23:22:00,
2013-01-19 15:28:00,62.6,18.5,30.20,SE,126,3.1,3.6,18,0.00,,CLR,0.00,VWS V14.01,2013-01-19 23:28:00,
2013-01-19 15:33:00,62.8,18.7,30.20,SSE,150,5.4,5.8,18,0.00,,CLR,0.00,VWS V14.01,2013-01-19 23:33:00,
2013-01-19 15:38:00,62.6,18.5,30.20,SSE,151,0.0,0.0,18,0.00,,CLR,0.00,VWS V14.01,2013-01-19 23:38:00,
2013-01-19 15:43:00,62.6,18.5,30.20,SSE,151,0.0,0.0,18,0.00,,CLR,0.00,VWS V14.01,2013-01-19 23:43:00,
2013-01-19 15:48:00,62.6,18.5,30.20,SSE,151,3.6,3.6,18,0.00,,CLR,0.00,VWS V14.01,2013-01-19 23:48:00,
2013-01-19 15:53:00,62.4,19.6,30.20,SSE,150,3.6,4.0,19,0.00,,CLR,0.00,VWS V14.01,2013-01-19 23:53:00,
2013-01-19 15:58:00,62.2,19.5,30.20,SSE,151,0.0,0.0,19,0.00,,CLR,0.00,VWS V14.01,2013-01-19 23:58:00,
2013-01-19 16:03:00,62.4,19.6,30.20,SSE,150,0.0,0.0,19,0.00,,CLR,0.00,VWS V14.01,2013-01-20 00:03:00,
2013-01-19 16:08:00,62.6,18.5,30.20,SSE,150,0.0,0.0,18,0.00,,CLR,0.00,VWS V14.01,2013-01-20 00:08:00,
2013-01-19 16:13:00,62.4,19.6,30.20,SSE,150,0.0,0.0,19,0.00,,CLR,0.00,VWS V14.01,2013-01-20 00:13:00,
2013-01-19 16:18:00,62.2,19.5,30.20,SSE,150,0.0,0.0,19,0.00,,CLR,0.00,VWS V14.01,2013-01-20 00:18:00,
2013-01-19 16:23:00,61.9,19.2,30.20,SSE,151,0.0,0.0,19,0.00,,CLR,0.00,VWS V14.01,2013-01-20 00:23:00,
2013-01-19 16:28:00,61.7,19.0,30.20,SSE,151,0.0,0.0,19,0.00,,CLR,0.00,VWS V14.01,2013-01-20 00:28:00,
2013-01-19 16:33:00,61.3,18.8,30.20,SSE,150,0.0,0.0,19,0.00,,CLR,0.00,VWS V14.01,2013-01-20 00:33:00,
2013-01-19 16:38:00,60.6,18.2,30.20,SSE,151,0.0,0.0,19,0.00,,CLR,0.00,VWS V14.01,2013-01-20 00:38:00,
2013-01-19 16:43:00,60.3,17.9,30.20,SSE,151,0.0,0.0,19,0.00,,CLR,0.00,VWS V14.01,2013-01-20 00:43:00,
2013-01-19 16:48:00,59.7,17.4,30.20,SSE,151,0.0,0.0,19,0.00,,CLR,0.00,VWS V14.01,2013-01-20 00:48:00,
2013-01-19 16:53:00,59.4,17.1,30.20,SSE,151,0.0,0.0,19,0.00,,CLR,0.00,VWS V14.01,2013-01-20 00:53:00,
2013-01-19 16:58:00,58.8,16.7,30.20,SSE,151,0.0,0.0,19,0.00,,CLR,0.00,VWS V14.01,2013-01-20 00:58:00,
2013-01-19 17:03:00,58.1,16.1,30.20,SSE,151,0.0,0.0,19,0.00,,CLR,0.00,VWS V14.01,2013-01-20 01:03:00,
2013-01-19 17:08:00,57.7,15.8,30.20,SSE,151,0.0,0.0,19,0.00,,CLR,0.00,VWS V14.01,2013-01-20 01:08:00,
2013-01-19 17:13:00,57.6,15.6,30.20,SSE,151,0.0,0.0,19,0.00,,CLR,0.00,VWS V14.01,2013-01-20 01:13:00,
2013-01-19 17:18:00,57.2,15.3,30.20,SSE,151,0.0,0.0,19,0.00,,CLR,0.00,VWS V14.01,2013-01-20 01:18:00,
2013-01-19 17:23:00,56.8,16.2,30.20,SSE,151,0.0,0.0,20,0.00,,CLR,0.00,VWS V14.01,2013-01-20 01:23:00,
2013-01-19 17:28:00,56.3,15.8,30.20,SSE,151,0.0,0.0,20,0.00,,CLR,0.00,VWS V14.01,2013-01-20 01:28:00,
2013-01-19 17:33:00,55.2,14.9,30.20,SSE,151,0.0,0.0,20,0.00,,CLR,0.00,VWS V14.01,2013-01-20 01:33:00,
2013-01-19 17:38:00,54.5,14.3,30.20,SSE,151,0.0,0.0,20,0.00,,CLR,0.00,VWS V14.01,2013-01-20 01:38:00,
2013-01-19 17:43:00,54.0,13.8,30.20,SSE,151,0.0,0.0,20,0.00,,CLR,0.00,VWS V14.01,2013-01-20 01:43:00,
2013-01-19 17:48:00,53.4,14.5,30.20,SSE,151,0.0,0.0,21,0.00,,CLR,0.00,VWS V14.01,2013-01-20 01:48:00,
2013-01-19 17:53:00,53.1,14.2,30.20,SSE,151,0.0,0.0,21,0.00,,CLR,0.00,VWS V14.01,2013-01-20 01:53:00,
2013-01-19 17:58:00,52.2,13.4,30.20,SSE,151,0.0,0.0,21,0.00,,CLR,0.00,VWS V14.01,2013-01-20 01:58:00,
2013-01-19 18:03:00,51.1,12.5,30.20,SSE,150,0.0,0.0,21,0.00,,CLR,0.00,VWS V14.01,2013-01-20 02:03:00,
2013-01-19 18:08:00,50.7,12.2,30.20,SSE,151,0.0,0.0,21,0.00,,CLR,0.00,VWS V14.01,2013-01-20 02:08:00,
2013-01-19 18:14:00,50.2,11.8,30.20,SSE,151,0.0,0.0,21,0.00,,CLR,0.00,VWS V14.01,2013-01-20 02:14:00,
2013-01-19 18:19:00,49.6,11.3,30.20,SSE,151,0.0,0.0,21,0.00,,CLR,0.00,VWS V14.01,2013-01-20 02:19:00,
2013-01-19 18:24:00,48.7,10.6,30.20,SSE,151,0.0,0.0,21,0.00,,CLR,0.00,VWS V14.01,2013-01-20 02:24:00,
2013-01-19 18:29:00,47.8,10.9,30.20,WNW,300,5.4,6.3,22,0.00,,CLR,0.00,VWS V14.01,2013-01-20 02:29:00,
2013-01-19 18:34:00,47.1,10.2,30.20,NW,305,5.8,6.7,22,0.00,,CLR,0.00,VWS V14.01,2013-01-20 02:34:00,
2013-01-19 18:39:00,46.9,10.1,30.20,NW,314,7.6,7.6,22,0.00,,CLR,0.00,VWS V14.01,2013-01-20 02:39:00,
2013-01-19 18:44:00,46.9,10.1,30.20,WNW,298,4.9,7.2,22,0.00,,CLR,0.00,VWS V14.01,2013-01-20 02:44:00,
2013-01-19 18:49:00,46.9,10.1,30.20,NW,310,4.9,4.9,22,0.00,,CLR,0.00,VWS V14.01,2013-01-20 02:49:00,
2013-01-19 18:54:00,46.8,9.9,30.20,NW,316,5.4,5.4,22,0.00,,CLR,0.00,VWS V14.01,2013-01-20 02:54:00,
2013-01-19 18:59:00,46.6,9.8,30.20,NW,310,5.8,6.3,22,0.00,,CLR,0.00,VWS V14.01,2013-01-20 02:59:00,
2013-01-19 19:04:00,46.4,9.6,30.20,NNW,334,5.8,5.8,22,0.00,,CLR,0.00,VWS V14.01,2013-01-20 03:04:00,
2013-01-19 19:09:00,46.6,9.8,30.20,NW,326,8.1,8.1,22,0.00,,CLR,0.00,VWS V14.01,2013-01-20 03:09:00,
2013-01-19 19:14:00,46.8,9.9,30.20,NNW,334,5.4,5.4,22,0.00,,CLR,0.00,VWS V14.01,2013-01-20 03:14:00,
2013-01-19 19:19:00,46.6,9.8,30.20,NNW,332,4.9,6.3,22,0.00,,CLR,0.00,VWS V14.01,2013-01-20 03:19:00,
2013-01-19 19:24:00,46.6,9.8,30.20,NNE,17,4.0,5.4,22,0.00,,CLR,0.00,VWS V14.01,2013-01-20 03:24:00,
2013-01-19 19:29:00,46.4,9.6,30.20,North,350,5.8,5.8,22,0.00,,CLR,0.00,VWS V14.01,2013-01-20 03:29:00,
2013-01-19 19:35:00,46.2,9.5,30.20,North,353,4.9,5.4,22,0.00,,CLR,0.00,VWS V14.01,2013-01-20 03:35:00,
2013-01-19 19:40:00,45.3,8.7,30.20,NW,311,5.8,5.8,22,0.00,,CLR,0.00,VWS V14.01,2013-01-20 03:40:00,
2013-01-19 19:45:00,45.0,8.4,30.20,NW,315,5.4,6.3,22,0.00,,CLR,0.00,VWS V14.01,2013-01-20 03:45:00,
2013-01-19 19:50:00,45.1,8.6,30.20,NW,318,3.6,3.6,22,0.00,,CLR,0.00,VWS V14.01,2013-01-20 03:50:00,
2013-01-19 19:55:00,45.0,8.4,30.20,NW,308,4.9,4.9,22,0.00,,CLR,0.00,VWS V14.01,2013-01-20 03:55:00,
2013-01-19 20:00:00,45.5,8.9,30.20,NNW,328,4.0,5.8,22,0.00,,CLR,0.00,VWS V14.01,2013-01-20 04:00:00,
2013-01-19 20:05:00,46.2,9.5,30.20,WNW,298,4.0,6.3,22,0.00,,CLR,0.00,VWS V14.01,2013-01-20 04:05:00,
2013-01-19 20:10:00,47.1,10.2,30.20,NW,324,10.5,10.5,22,0.00,,CLR,0.00,VWS V14.01,2013-01-20 04:10:00,
2013-01-19 20:15:00,47.5,10.6,30.20,NW,314,7.6,7.6,22,0.00,,CLR,0.00,VWS V14.01,2013-01-20 04:15:00,
2013-01-19 20:20:00,47.3,10.4,30.20,NW,326,8.3,8.3,22,0.00,,CLR,0.00,VWS V14.01,2013-01-20 04:20:00,
2013-01-19 20:25:00,47.3,10.4,30.20,NW,324,5.8,5.8,22,0.00,,CLR,0.00,VWS V14.01,2013-01-20 04:25:00,
2013-01-19 20:30:00,47.3,10.4,30.20,NNE,30,5.8,5.8,22,0.00,,CLR,0.00,VWS V14.01,2013-01-20 04:30:00,
2013-01-19 20:35:00,46.8,9.9,30.20,North,1,4.0,4.9,22,0.00,,CLR,0.00,VWS V14.01,2013-01-20 04:35:00,
2013-01-19 20:40:00,46.0,9.3,30.20,North,8,4.9,4.9,22,0.00,,CLR,0.00,VWS V14.01,2013-01-20 04:40:00,
2013-01-19 20:45:00,45.3,8.7,30.20,North,1,7.6,7.6,22,0.00,,CLR,0.00,VWS V14.01,2013-01-20 04:45:00,
2013-01-19 20:50:00,44.8,8.3,30.23,NW,323,5.4,8.1,22,0.00,,CLR,0.00,VWS V14.01,2013-01-20 04:50:00,
2013-01-19 20:56:00,45.5,8.9,30.23,NW,322,5.4,8.3,22,0.00,,CLR,0.00,VWS V14.01,2013-01-20 04:56:00,
2013-01-19 21:01:00,46.2,9.5,30.23,NNW,343,10.1,10.1,22,0.00,,CLR,0.00,VWS V14.01,2013-01-20 05:01:00,
2013-01-19 21:02:00,46.2,9.5,30.23,NW,311,5.4,5.8,22,0.00,,CLR,0.00,VWS V14.01,2013-01-20 05:02:00,
2013-01-19 21:07:00,45.7,9.0,30.23,NNW,335,5.4,5.8,22,0.00,,CLR,0.00,VWS V14.01,2013-01-20 05:07:00,
2013-01-19 21:12:00,45.1,8.6,30.23,WNW,295,6.3,6.3,22,0.00,,CLR,0.00,VWS V14.01,2013-01-20 05:12:00,
2013-01-19 21:17:00,45.0,8.4,30.23,NW,306,3.6,8.7,22,0.00,,CLR,0.00,VWS V14.01,2013-01-20 05:17:00,
2013-01-19 21:22:00,45.3,8.7,30.23,WNW,296,8.1,8.1,22,0.00,,CLR,0.00,VWS V14.01,2013-01-20 05:22:00,
2013-01-19 21:27:00,45.9,9.2,30.23,WNW,301,4.0,7.6,22,0.00,,CLR,0.00,VWS V14.01,2013-01-20 05:27:00,
2013-01-19 21:32:00,46.2,9.5,30.23,WNW,290,4.0,4.0,22,0.00,,CLR,0.00,VWS V14.01,2013-01-20 05:32:00,
2013-01-19 21:37:00,46.4,9.6,30.23,West,272,4.9,5.8,22,0.00,,CLR,0.00,VWS V14.01,2013-01-20 05:37:00,
2013-01-19 21:42:00,46.8,9.9,30.23,West,262,5.8,8.1,22,0.00,,CLR,0.00,VWS V14.01,2013-01-20 05:42:00,
2013-01-19 21:47:00,46.6,9.8,30.23,WNW,289,7.6,11.0,22,0.00,,CLR,0.00,VWS V14.01,2013-01-20 05:47:00,
2013-01-19 21:52:00,45.5,8.9,30.23,West,265,6.3,8.1,22,0.00,,CLR,0.00,VWS V14.01,2013-01-20 05:52:00,
2013-01-19 21:57:00,44.8,8.3,30.23,WNW,286,4.9,4.9,22,0.00,,CLR,0.00,VWS V14.01,2013-01-20 05:57:00,
2013-01-19 22:02:00,44.1,8.6,30.23,WNW,294,5.4,6.3,23,0.00,,CLR,0.00,VWS V14.01,2013-01-20 06:02:00,
2013-01-19 22:07:00,43.5,8.2,30.23,WNW,292,5.8,5.8,23,0.00,,CLR,0.00,VWS V14.01,2013-01-20 06:07:00,
2013-01-19 22:12:00,43.2,7.9,30.23,WNW,296,6.7,6.7,23,0.00,,CLR,0.00,VWS V14.01,2013-01-20 06:12:00,
2013-01-19 22:17:00,43.0,7.7,30.23,WNW,291,4.0,4.9,23,0.00,,CLR,0.00,VWS V14.01,2013-01-20 06:17:00,
2013-01-19 22:22:00,42.8,7.6,30.23,WNW,303,4.9,5.4,23,0.00,,CLR,0.00,VWS V14.01,2013-01-20 06:22:00,
2013-01-19 22:27:00,42.6,7.4,30.23,WNW,301,5.4,8.1,23,0.00,,CLR,0.00,VWS V14.01,2013-01-20 06:27:00,
2013-01-19 22:32:00,43.2,7.9,30.23,WNW,302,5.8,6.3,23,0.00,,CLR,0.00,VWS V14.01,2013-01-20 06:32:00,
2013-01-19 22:37:00,43.7,8.3,30.23,NW,309,7.6,7.6,23,0.00,,CLR,0.00,VWS V14.01,2013-01-20 06:37:00,
2013-01-19 22:42:00,44.8,8.3,30.23,WNW,293,8.1,8.1,22,0.00,,CLR,0.00,VWS V14.01,2013-01-20 06:42:00,
2013-01-19 22:47:00,45.9,9.2,30.23,NW,315,7.2,7.2,22,0.00,,CLR,0.00,VWS V14.01,2013-01-20 06:47:00,
2013-01-19 22:52:00,46.4,9.6,30.23,WNW,288,5.8,5.8,22,0.00,,CLR,0.00,VWS V14.01,2013-01-20 06:52:00,
2013-01-19 22:57:00,46.4,9.6,30.23,WNW,301,5.8,6.3,22,0.00,,CLR,0.00,VWS V14.01,2013-01-20 06:57:00,
2013-01-19 23:02:00,46.0,9.3,30.23,NW,312,7.6,8.7,22,0.00,,CLR,0.00,VWS V14.01,2013-01-20 07:02:00,
2013-01-19 23:07:00,45.7,9.0,30.23,NW,308,7.2,7.6,22,0.00,,CLR,0.00,VWS V14.01,2013-01-20 07:07:00,
2013-01-19 23:12:00,44.8,8.3,30.23,NW,315,5.4,7.6,22,0.00,,CLR,0.00,VWS V14.01,2013-01-20 07:12:00,
2013-01-19 23:17:00,44.1,8.6,30.23,NW,319,8.3,8.3,23,0.00,,CLR,0.00,VWS V14.01,2013-01-20 07:17:00,
2013-01-19 23:22:00,44.2,8.8,30.23,NW,310,11.0,11.0,23,0.00,,CLR,0.00,VWS V14.01,2013-01-20 07:22:00,
2013-01-19 23:27:00,45.1,8.6,30.23,NW,308,10.5,11.4,22,0.00,,CLR,0.00,VWS V14.01,2013-01-20 07:27:00,
2013-01-19 23:32:00,45.1,8.6,30.23,WNW,292,6.3,6.3,22,0.00,,CLR,0.00,VWS V14.01,2013-01-20 07:32:00,
2013-01-19 23:37:00,44.8,8.3,30.23,NW,309,5.4,5.4,22,0.00,,CLR,0.00,VWS V14.01,2013-01-20 07:37:00,
2013-01-19 23:42:00,44.4,8.9,30.23,NW,324,0.0,0.0,23,0.00,,CLR,0.00,VWS V14.01,2013-01-20 07:42:00,
2013-01-19 23:47:00,44.1,8.6,30.23,NW,320,2.7,2.7,23,0.00,,CLR,0.00,VWS V14.01,2013-01-20 07:47:00,
2013-01-19 23:52:00,43.5,8.2,30.23,NW,312,7.6,7.6,23,0.00,,CLR,0.00,VWS V14.01,2013-01-20 07:52:00,
2013-01-19 23:57:00,43.2,7.9,30.23,WNW,291,8.3,8.3,23,0.00,,CLR,0.00,VWS V14.01,2013-01-20 07:57:00,